Tracking 22780 objects as of 11-Apr-2021
HD Live streaming from Space Station
objects crossing your sky now

SL-3 R/B

Track SL-3 R/B now!
10-day predictions


NORAD ID: 7210
Int'l Code: 1974-011B
Perigee: 797.3 km
Apogee: 914.5 km
Inclination: 81.2 °
Period: 101.9 minutes
Semi major axis: 7226 km
RCS: 6.5263 m2 (large)
Launch date: March 5, 1974
Source: Commonwealth of Independent States (former USSR) (CIS)
Launch site: PLESETSK MISSILE AND SPACE COMPLEX (PKMTR)

Note: This is a ROCKET BODY
aabbcc
Your satellite tracking list
Your tracking list is empty




NASA's NSSDC Master Catalog

Two Line Element Set (TLE):
1  7210U 74011B   21100.41063158 -.00000126  00000-0 -72238-4 0  9992
2  7210  81.2334 123.3807 0081093  16.5449 343.8340 14.13105554426733
Source of the keplerian elements: AFSPC